TimeCDT,TemperatureF,Dew PointF,Humidity,Sea Level PressureIn,VisibilityMPH,Wind Direction,Wind SpeedMPH,Gust SpeedMPH,PrecipitationIn,Events,Conditions,WindDirDegrees,DateUTC
12:15 AM,54.5,52.2,92,30.09,10.0,Calm,Calm,-,N/A,,Clear,0,2013-06-20 05:15:00
12:35 AM,54.1,52.5,94,30.09,10.0,Calm,Calm,-,N/A,,Clear,0,2013-06-20 05:35:00
12:55 AM,54.1,52.5,94,30.09,10.0,Calm,Calm,-,N/A,,Clear,0,2013-06-20 05:55:00
1:15 AM,54.5,52.7,94,30.08,10.0,Calm,Calm,-,N/A,,Clear,0,2013-06-20 06:15:00
1:35 AM,53.2,51.4,94,30.08,10.0,Calm,Calm,-,N/A,,Clear,0,2013-06-20 06:35:00
1:55 AM,53.6,52.0,94,30.08,10.0,Calm,Calm,-,N/A,,Clear,0,2013-06-20 06:55:00
2:15 AM,53.8,52.5,95,30.08,10.0,Calm,Calm,-,N/A,,Clear,0,2013-06-20 07:15:00
2:35 AM,53.8,52.3,95,30.08,10.0,Calm,Calm,-,N/A,,Clear,0,2013-06-20 07:35:00
2:55 AM,53.6,52.0,94,30.08,10.0,Calm,Calm,-,N/A,,Clear,0,2013-06-20 07:55:00
3:15 AM,52.9,51.3,94,30.08,10.0,Calm,Calm,-,N/A,,Clear,0,2013-06-20 08:15:00
3:35 AM,52.5,51.3,95,30.09,10.0,Calm,Calm,-,N/A,,Clear,0,2013-06-20 08:35:00
3:55 AM,54.1,52.3,94,30.10,10.0,Calm,Calm,-,N/A,,Scattered Clouds,0,2013-06-20 08:55:00
4:15 AM,54.5,52.2,92,30.10,10.0,Calm,Calm,-,N/A,,Clear,0,2013-06-20 09:15:00
4:35 AM,54.0,52.0,93,30.11,10.0,Calm,Calm,-,N/A,,Mostly Cloudy,0,2013-06-20 09:35:00
4:55 AM,54.1,51.8,92,30.11,10.0,Calm,Calm,-,N/A,,Mostly Cloudy,0,2013-06-20 09:55:00
5:15 AM,53.8,51.8,93,30.10,10.0,Calm,Calm,-,N/A,,Mostly Cloudy,0,2013-06-20 10:15:00
5:35 AM,53.8,51.8,93,30.09,10.0,Calm,Calm,-,N/A,,Scattered Clouds,0,2013-06-20 10:35:00
5:55 AM,54.5,52.2,92,30.09,10.0,Calm,Calm,-,N/A,,Clear,0,2013-06-20 10:55:00
6:15 AM,56.8,53.8,89,30.09,10.0,Calm,Calm,-,N/A,,Scattered Clouds,0,2013-06-20 11:15:00
6:35 AM,59.7,55.4,86,30.10,10.0,Calm,Calm,-,N/A,,Mostly Cloudy,0,2013-06-20 11:35:00
6:55 AM,59.4,54.3,83,30.09,10.0,South,3.5,-,N/A,,Scattered Clouds,170,2013-06-20 11:55:00
7:15 AM,60.3,54.7,82,30.10,10.0,Calm,Calm,-,N/A,,Clear,0,2013-06-20 12:15:00
7:35 AM,62.8,55.9,78,30.11,10.0,Calm,Calm,-,N/A,,Clear,0,2013-06-20 12:35:00
7:55 AM,64.6,56.1,74,30.11,10.0,Calm,Calm,-,N/A,,Scattered Clouds,0,2013-06-20 12:55:00
8:15 AM,65.3,55.6,71,30.11,10.0,Calm,Calm,-,N/A,,Scattered Clouds,0,2013-06-20 13:15:00
8:35 AM,66.0,56.5,71,30.11,10.0,Calm,Calm,-,N/A,,Overcast,0,2013-06-20 13:35:00
8:55 AM,66.6,56.5,70,30.11,10.0,Calm,Calm,-,N/A,,Overcast,0,2013-06-20 13:55:00
9:15 AM,67.1,57.0,70,30.12,10.0,Calm,Calm,-,N/A,,Overcast,0,2013-06-20 14:15:00
9:35 AM,67.3,57.7,71,30.12,10.0,Calm,Calm,-,N/A,,Overcast,0,2013-06-20 14:35:00
10:15 AM,71.2,58.8,65,30.12,10.0,Calm,Calm,-,N/A,,Mostly Cloudy,0,2013-06-20 15:15:00
10:35 AM,71.1,59.5,67,30.12,10.0,Calm,Calm,-,N/A,,Scattered Clouds,0,2013-06-20 15:35:00
10:55 AM,73.2,61.3,66,30.11,10.0,SSW,3.5,-,N/A,,Scattered Clouds,200,2013-06-20 15:55:00
11:15 AM,73.4,57.6,58,30.11,10.0,Calm,Calm,-,N/A,,Mostly Cloudy,0,2013-06-20 16:15:00
12:15 PM,74.8,58.8,57,30.11,10.0,South,3.5,-,N/A,,Clear,170,2013-06-20 17:15:00
12:55 PM,75.7,61.0,60,30.11,10.0,South,4.6,-,N/A,,Clear,170,2013-06-20 17:55:00
1:35 PM,79.7,62.4,55,30.09,10.0,SSE,5.8,-,N/A,,Clear,150,2013-06-20 18:35:00
3:55 PM,69.1,63.1,81,30.08,10.0,Calm,Calm,-,N/A,,Mostly Cloudy,0,2013-06-20 20:55:00
5:15 PM,71.1,64.2,79,30.07,10.0,Calm,Calm,-,N/A,,Light Drizzle,0,2013-06-20 22:15:00
6:15 PM,72.9,64.6,75,30.05,10.0,Calm,Calm,-,N/A,,Clear,0,2013-06-20 23:15:00
6:35 PM,72.1,66.0,81,30.05,10.0,Calm,Calm,-,N/A,,Clear,0,2013-06-20 23:35:00
7:15 PM,72.0,64.4,77,30.05,10.0,Calm,Calm,-,N/A,,Clear,0,2013-06-21 00:15:00
7:35 PM,71.1,62.6,75,30.06,10.0,East,3.5,-,N/A,,Clear,90,2013-06-21 00:35:00
7:55 PM,70.7,60.4,70,30.06,10.0,Calm,Calm,-,N/A,,Clear,0,2013-06-21 00:55:00
8:55 PM,68.9,64.6,86,30.07,10.0,North,6.9,-,N/A,Rain,Rain,10,2013-06-21 01:55:00
9:15 PM,66.2,63.0,89,30.09,4.0,North,6.9,17.3,N/A,Rain,Heavy Rain,10,2013-06-21 02:15:00
9:55 PM,64.4,62.1,92,30.12,4.0,NNE,8.1,18.4,N/A,Rain,Rain,30,2013-06-21 02:55:00
10:15 PM,64.4,62.1,92,30.14,3.0,NE,5.8,-,N/A,Rain,Heavy Rain,40,2013-06-21 03:15:00
10:35 PM,64.0,62.2,94,30.15,2.5,ENE,5.8,-,N/A,Rain,Heavy Rain,60,2013-06-21 03:35:00
10:55 PM,64.0,62.2,94,30.15,3.0,ENE,5.8,-,N/A,Rain,Heavy Rain,70,2013-06-21 03:55:00
11:15 PM,64.2,62.6,94,30.16,3.0,ESE,3.5,-,N/A,Rain,Heavy Rain,110,2013-06-21 04:15:00
11:35 PM,63.9,62.2,94,30.15,3.0,SE,5.8,-,N/A,Rain,Heavy Rain,130,2013-06-21 04:35:00
11:55 PM,63.7,62.1,94,30.12,4.0,SE,10.4,16.1,N/A,Rain,Rain,130,2013-06-21 04:55:00